When you browse on this site, cookies collect data to enhance your experience and personalize the content and advertising you see.
Visit our Privacy Policy to learn more. By continuing to use the site, you agree to this use of cookies and data.
EN

Hourly Weather Kanpur

Today, 14 August, Friday

Time Temperature Precipitation Wind Pressure Humidity
00:00 +30°C° 0 mm 2 mps 736 mmHg 82%
01:00 +30°C° 0 mm 2 mps 735 mmHg 82%
02:00 +30°C° 0 mm 2 mps 735 mmHg 83%
03:00 +30°C° 0 mm 2 mps 735 mmHg 83%
04:00 +29°C° 0 mm 1 mps 735 mmHg 83%
05:00 +29°C° 0 mm 1 mps 735 mmHg 83%
06:00 +31°C° 0.2 mm 2 mps 736 mmHg 79%
07:00 +32°C° 0.2 mm 2 mps 736 mmHg 74%
08:00 +34°C° 0.2 mm 2 mps 736 mmHg 69%
09:00 +35°C° 0 mm 2 mps 736 mmHg 64%
10:00 +36°C° 0 mm 2 mps 736 mmHg 59%
11:00 +37°C° 0 mm 2 mps 736 mmHg 53%
12:00 +38°C° 0 mm 2 mps 735 mmHg 53%
13:00 +38°C° 0 mm 2 mps 734 mmHg 52%
14:00 +38°C° 0 mm 2 mps 734 mmHg 51%
15:00 +38°C° 0 mm 2 mps 733 mmHg 53%
16:00 +38°C° 0 mm 2 mps 733 mmHg 55%
17:00 +37°C° 0 mm 2 mps 733 mmHg 57%
18:00 +37°C° 0 mm 2 mps 733 mmHg 60%
19:00 +36°C° 0 mm 2 mps 733 mmHg 63%
20:00 +35°C° 0 mm 2 mps 734 mmHg 65%
21:00 +34°C° 0 mm 2 mps 734 mmHg 68%
22:00 +34°C° 0 mm 2 mps 734 mmHg 70%
23:00 +32°C° 0 mm 2 mps 734 mmHg 72%

Tomorrow, 15 August, Saturday

Time Temperature Precipitation Wind Pressure Humidity
00:00 +32°C° 0.6 mm 2 mps 734 mmHg 73%
01:00 +32°C° 0.6 mm 1 mps 734 mmHg 75%
02:00 +32°C° 0.6 mm 1 mps 733 mmHg 76%
03:00 +32°C° 1.7 mm 1 mps 734 mmHg 76%
04:00 +32°C° 1.7 mm 1 mps 734 mmHg 76%
05:00 +32°C° 1.7 mm 1 mps 734 mmHg 76%
06:00 +33°C° 1.2 mm 1 mps 734 mmHg 72%
07:00 +33°C° 1.2 mm 1 mps 734 mmHg 68%
08:00 +34°C° 1.2 mm 1 mps 735 mmHg 64%
09:00 +35°C° 1.6 mm 1 mps 735 mmHg 61%
10:00 +36°C° 1.6 mm 1 mps 735 mmHg 58%
11:00 +37°C° 1.6 mm 1 mps 735 mmHg 55%
12:00 +37°C° 0 mm 1 mps 734 mmHg 53%
13:00 +39°C° 0 mm 1 mps 734 mmHg 51%
14:00 +39°C° 0 mm 1 mps 734 mmHg 49%
15:00 +39°C° 0 mm 1 mps 733 mmHg 53%
16:00 +37°C° 0 mm 1 mps 733 mmHg 57%
17:00 +38°C° 0 mm 2 mps 733 mmHg 60%
18:00 +36°C° 0.4 mm 2 mps 734 mmHg 65%
19:00 +35°C° 0.4 mm 3 mps 734 mmHg 69%
20:00 +34°C° 0.4 mm 4 mps 735 mmHg 74%
21:00 +33°C° 1.3 mm 4 mps 735 mmHg 76%
22:00 +33°C° 1.3 mm 5 mps 735 mmHg 78%
23:00 +32°C° 1.3 mm 5 mps 735 mmHg 80%

Day after tomorrow, 16 August, Sunday

Time Temperature Precipitation Wind Pressure Humidity
00:00 +32°C° 1.1 mm 5 mps 735 mmHg 81%
01:00 +32°C° 1.1 mm 4 mps 735 mmHg 82%
02:00 +32°C° 1.1 mm 4 mps 735 mmHg 83%
03:00 +30°C° 1.2 mm 4 mps 735 mmHg 85%
04:00 +30°C° 1.2 mm 5 mps 735 mmHg 87%
05:00 +29°C° 1.2 mm 5 mps 735 mmHg 88%
06:00 +30°C° 0.7 mm 5 mps 735 mmHg 87%
07:00 +30°C° 0.7 mm 5 mps 736 mmHg 85%
08:00 +30°C° 0.7 mm 5 mps 736 mmHg 83%
09:00 +33°C° 0.5 mm 4 mps 736 mmHg 77%
10:00 +34°C° 0.5 mm 4 mps 736 mmHg 72%
11:00 +35°C° 0.5 mm 4 mps 736 mmHg 66%
12:00 +36°C° 1.9 mm 4 mps 736 mmHg 65%
13:00 +36°C° 1.9 mm 4 mps 735 mmHg 64%
14:00 +37°C° 1.9 mm 4 mps 734 mmHg 63%
15:00 +36°C° 1.8 mm 3 mps 734 mmHg 65%
16:00 +36°C° 1.8 mm 3 mps 734 mmHg 66%
17:00 +36°C° 1.8 mm 2 mps 733 mmHg 68%
18:00 +35°C° 3 mm 2 mps 734 mmHg 72%
19:00 +34°C° 3 mm 2 mps 734 mmHg 76%
20:00 +32°C° 3 mm 2 mps 735 mmHg 80%
21:00 +31°C° 0.4 mm 3 mps 735 mmHg 81%
22:00 +31°C° 0.4 mm 3 mps 735 mmHg 82%
23:00 +31°C° 0.4 mm 3 mps 735 mmHg 83%

17 August, Monday

Time Temperature Precipitation Wind Pressure Humidity
00:00 +31°C° 0.1 mm 3 mps 735 mmHg 84%
01:00 +31°C° 0.1 mm 3 mps 735 mmHg 84%
02:00 +30°C° 0.1 mm 3 mps 734 mmHg 84%
03:00 +30°C° 0.2 mm 3 mps 734 mmHg 85%
04:00 +30°C° 0.2 mm 3 mps 735 mmHg 86%
05:00 +30°C° 0.2 mm 3 mps 735 mmHg 87%
06:00 +30°C° 0 mm 4 mps 735 mmHg 84%
07:00 +32°C° 0 mm 4 mps 736 mmHg 81%
08:00 +33°C° 0 mm 4 mps 736 mmHg 78%
09:00 +34°C° 0 mm 4 mps 736 mmHg 73%
10:00 +35°C° 0 mm 4 mps 736 mmHg 68%
11:00 +36°C° 0 mm 4 mps 736 mmHg 64%
12:00 +37°C° 0.2 mm 3 mps 735 mmHg 62%
13:00 +37°C° 0.2 mm 3 mps 734 mmHg 60%
14:00 +38°C° 0.2 mm 3 mps 734 mmHg 58%
15:00 +37°C° 0.7 mm 3 mps 733 mmHg 60%
16:00 +37°C° 0.7 mm 2 mps 733 mmHg 62%
17:00 +37°C° 0.7 mm 2 mps 733 mmHg 65%
18:00 +36°C° 1.9 mm 2 mps 733 mmHg 69%
19:00 +34°C° 1.9 mm 3 mps 734 mmHg 74%
20:00 +33°C° 1.9 mm 3 mps 735 mmHg 79%
21:00 +33°C° 0.5 mm 3 mps 735 mmHg 80%
22:00 +31°C° 0.5 mm 2 mps 735 mmHg 82%
23:00 +31°C° 0.5 mm 2 mps 735 mmHg 84%

18 August, Tuesday

Time Temperature Precipitation Wind Pressure Humidity
00:00 +31°C° 0.6 mm 2 mps 735 mmHg 84%
01:00 +31°C° 0.6 mm 2 mps 735 mmHg 84%
02:00 +31°C° 0.6 mm 2 mps 734 mmHg 84%
03:00 +31°C° 0.4 mm 2 mps 735 mmHg 85%
04:00 +30°C° 0.4 mm 2 mps 735 mmHg 86%
05:00 +30°C° 0.4 mm 2 mps 735 mmHg 86%
06:00 +31°C° 0.3 mm 2 mps 735 mmHg 84%
07:00 +33°C° 0.3 mm 3 mps 736 mmHg 81%
08:00 +33°C° 0.3 mm 3 mps 736 mmHg 79%
09:00 +34°C° 1.6 mm 3 mps 736 mmHg 74%
10:00 +35°C° 1.6 mm 3 mps 736 mmHg 69%
11:00 +36°C° 1.6 mm 2 mps 736 mmHg 64%
12:00 +37°C° 0.9 mm 3 mps 735 mmHg 62%
13:00 +37°C° 0.9 mm 3 mps 735 mmHg 60%
14:00 +38°C° 0.9 mm 3 mps 734 mmHg 57%
15:00 +37°C° 4.5 mm 3 mps 734 mmHg 64%
16:00 +35°C° 4.5 mm 3 mps 733 mmHg 70%
17:00 +34°C° 4.5 mm 3 mps 733 mmHg 77%
18:00 +33°C° 0.8 mm 3 mps 734 mmHg 79%
19:00 +33°C° 0.8 mm 3 mps 734 mmHg 80%
20:00 +32°C° 0.8 mm 4 mps 735 mmHg 82%
21:00 +32°C° 0.1 mm 4 mps 735 mmHg 83%
22:00 +32°C° 0.1 mm 4 mps 735 mmHg 84%
23:00 +30°C° 0.1 mm 4 mps 735 mmHg 86%

19 August, Wednesday

Time Temperature Precipitation Wind Pressure Humidity
00:00 +30°C° 0.5 mm 4 mps 735 mmHg 87%
01:00 +30°C° 0.5 mm 3 mps 735 mmHg 89%
02:00 +29°C° 0.5 mm 3 mps 735 mmHg 90%
03:00 +29°C° 0.9 mm 3 mps 735 mmHg 90%
04:00 +29°C° 0.9 mm 3 mps 735 mmHg 90%
05:00 +29°C° 0.9 mm 3 mps 735 mmHg 90%
06:00 +30°C° 0 mm 3 mps 735 mmHg 87%
07:00 +30°C° 0 mm 3 mps 736 mmHg 84%
08:00 +31°C° 0 mm 3 mps 736 mmHg 81%
09:00 +33°C° 0.4 mm 3 mps 736 mmHg 78%
10:00 +34°C° 0.4 mm 3 mps 735 mmHg 74%
11:00 +35°C° 0.4 mm 3 mps 735 mmHg 71%
12:00 +35°C° 0.6 mm 3 mps 735 mmHg 69%
13:00 +35°C° 0.6 mm 2 mps 734 mmHg 68%
14:00 +35°C° 0.6 mm 2 mps 734 mmHg 67%
15:00 +34°C° 0.8 mm 1 mps 733 mmHg 69%
16:00 +33°C° 0.8 mm 1 mps 733 mmHg 72%
17:00 +31°C° 0.8 mm 0 mps 733 mmHg 74%
18:00 +32°C° 0.6 mm 1 mps 734 mmHg 76%
19:00 +32°C° 0.6 mm 1 mps 734 mmHg 79%
20:00 +31°C° 0.6 mm 2 mps 735 mmHg 82%
21:00 +31°C° 2.7 mm 2 mps 735 mmHg 83%
22:00 +30°C° 2.7 mm 2 mps 735 mmHg 84%
23:00 +30°C° 2.7 mm 2 mps 735 mmHg 86%
Show more